Home > Weather > Medina > Past weeks

Flag for Saudi Arabia Weather for the Past 2 Weeks in Medina, Saudi Arabia

Now
54 °F

Sunny.


Feels Like: 52 °F
Forecast: 45 / 74 °F
Wind: 6 mph from North

Location: Madinah

Current Time: Feb 8, 2016 at 9:12:33 AM

Latest Report: Feb 8, 2016 at 8:00 AM


Visibility: 10 mi

Pressure: 30.18 "Hg (28.07 "Hg at 606m altitude)

Humidity: 54%

Dew point: 37 °F

Location of MedinaLocation

Historic Weather in Medina — Graph

°F

Medina Temperature Yesterday

Maximum temperature yesterday: 79 °F (at 4:00 PM)
Minimum temperature yesterday: 61 °F (at 6:00 AM)
Average temperature yesterday: 70 °F

High & Low Weather Summary for the Past Weeks

 TemperatureHumidityPressure
High84 °F (Feb 5, 3:00 PM)77% (Jan 26, 4:00 AM)30.45 "Hg (Jan 26, 4:00 AM)
Low41 °F (Jan 30, 7:00 AM)10% (Jan 31, 3:00 AM)29.95 "Hg (Feb 6, 3:00 PM)
Average63 °F27%30.17 "Hg
* Reported Jan 24 8:00 AM — Feb 8 8:00 AM, Medina, Weather by CustomWeather, © 2016

Note: Actual official high and low records may vary slightly from our data, if they occured in-between our weather recording intervals... More about our weather records

Advertising

Medina Weather History for the Previous 24 Hours

 ConditionsComfort  
Time TempWeatherWind HumidityBarometerVisibility
8:00 AM
Mon, Feb 8
54 °FSunny.6 mph54%30.18 "Hg10 mi
7:00 AM54 °FSunny.8 mph58%30.15 "Hg10 mi
6:00 AM54 °FClear.6 mph54%30.12 "Hg10 mi
5:00 AM55 °FClear.6 mph44%30.09 "Hg10 mi
4:00 AM57 °FClear.No wind41%30.09 "Hg10 mi
3:00 AM61 °FClear.5 mph36%30.09 "Hg10 mi
2:00 AM63 °FClear.6 mph37%30.09 "Hg10 mi
1:00 AM63 °FClear.5 mph34%30.09 "Hg10 mi
12:00 AM64 °FClear.9 mph34%30.09 "Hg10 mi
11:00 PM
Sun, Feb 7
66 °FClear.No wind32%30.09 "Hg10 mi
10:00 PM66 °FClear.14 mph28%30.09 "Hg10 mi
9:00 PM68 °FClear.12 mph23%30.07 "Hg10 mi
8:00 PM72 °FClear.12 mph14%30.04 "Hg10 mi
7:00 PM72 °FClear.17 mph13%30.04 "Hg10 mi
6:00 PM75 °FSunny.14 mph12%30.01 "Hg10 mi
5:00 PM77 °FSunny.14 mph11%29.98 "Hg10 mi
4:00 PM79 °FSunny.8 mph11%29.98 "Hg10 mi
3:00 PM77 °FSunny.12 mph11%29.98 "Hg10 mi
2:00 PM75 °FSunny.9 mph13%30.01 "Hg10 mi
1:00 PM73 °FSunny.12 mph15%30.04 "Hg10 mi
12:00 PM72 °FSunny.13 mph16%30.07 "Hg10 mi
11:00 AM70 °FSunny.3 mph23%30.09 "Hg10 mi
9:00 AM64 °FSunny.3 mph28%30.09 "Hg10 mi
Weather by CustomWeather, © 2016

See weather overviewHow to use our weather pages